Tracking 31027 objects as of 19-Jul-2025
HD Live streaming from Space Station
objects crossing your sky now

STARLINK-3938

Track STARLINK-3938 now!
10-day predictions
STARLINK-3938 is classified as:


NORAD ID: 52566
Int'l Code: 2022-051AK
Perigee: 545.8 km
Apogee: 548.0 km
Inclination: 53.2 °
Period: 95.4 minutes
Semi major axis: 6917 km
RCS: Unknown
Launch date: May 13, 2022
Source: United States (US)
Launch site: AIR FORCE WESTERN TEST RANGE (AFWTR)
Your satellite tracking list
Your tracking list is empty




NASA's NSSDC Master Catalog

Two Line Element Set (TLE):
1 52566U 22051AK  25199.71105988 -.00000152  00000-0  85363-5 0  9998
2 52566  53.2184 104.4936 0001533  89.8470 270.2698 15.08832910176054
Source of the keplerian elements: AFSPC